QPF
0.09 0.10 0.08 0.06 0.06 0.04 0.05 0.08 0.11 0.10 0.08 0.06 0.04 0.03 0.03 0.03 0.04 0.03 0.03 0.03 0.01 0.01 0.01 0.01 0.01 0.01 0.01 0.01 0.01 0.01 0.01 0.01 0.02 0.03 0.03 0.02 0.02 0.02
0.10 0.10 0.09 0.08 0.08 0.06 0.05 0.06 0.10 0.11 0.09 0.06 0.04 0.03 0.04 0.06 0.08 0.04 0.03 0.04 0.02 0.01 0.01 0.01 0.01 0.01 0.01 0.02 0.01 0.01 0.01 0.01 0.01 0.01 0.01 0.01 0.01 0.02
0.09 0.10 0.09 0.09 0.09 0.08 0.06 0.07 0.09 0.11 0.09 0.06 0.04 0.04 0.03 0.03 0.06 0.04 0.04 0.04 0.03 0.03 0.03 0.03 0.02 0.02 0.02 0.02 0.01 0.01 0.01 0.02 0.02 0.02 0.02 0.02 0.01 0.01
0.12 0.12 0.11 0.11 0.11 0.11 0.10 0.08 0.09 0.10 0.09 0.07 0.06 0.06 0.05 0.04 0.04 0.05 0.05 0.03 0.03 0.05 0.05 0.03 0.02 0.01 0.01 0.02 0.02 0.03 0.03 0.03 0.02 0.02 0.01 0.01 0.01 0.01
0.13 0.12 0.12 0.12 0.12 0.13 0.11 0.10 0.10 0.09 0.10 0.08 0.06 0.08 0.07 0.08 0.08 0.07 0.06 0.06 0.04 0.05 0.05 0.04 0.02 0.01 0.02 0.02 0.01 0.02 0.01 0.01 0.01 0.01 0.01 0.01 0.00 0.00
0.12 0.12 0.11 0.10 0.10 0.12 0.12 0.12 0.11 0.11 0.11 0.09 0.07 0.07 0.09 0.11 0.12 0.10 0.10 0.09 0.08 0.06 0.06 0.05 0.05 0.04 0.03 0.02 0.01 0.01 0.01 0.01 0.01 0.01 0.00 0.00 0.00 0.00
0.11 0.09 0.07 0.07 0.07 0.08 0.06 0.08 0.09 0.11 0.11 0.10 0.09 0.09 0.09 0.12 0.12 0.12 0.11 0.10 0.08 0.05 0.04 0.04 0.06 0.05 0.05 0.04 0.04 0.03 0.02 0.02 0.01 0.01 0.01 0.01 0.00 0.00
0.12 0.10 0.08 0.07 0.06 0.05 0.03 0.04 0.06 0.09 0.11 0.11 0.11 0.11 0.10 0.11 0.12 0.12 0.12 0.11 0.09 0.06 0.07 0.06 0.06 0.07 0.07 0.05 0.05 0.04 0.04 0.03 0.02 0.02 0.01 0.01 0.01 0.01
0.12 0.11 0.08 0.07 0.08 0.07 0.07 0.06 0.06 0.07 0.08 0.10 0.11 0.11 0.11 0.11 0.11 0.10 0.10 0.10 0.09 0.09 0.10 0.07 0.05 0.05 0.05 0.06 0.07 0.06 0.05 0.05 0.04 0.02 0.01 0.01 0.01 0.01
0.10 0.09 0.09 0.08 0.07 0.08 0.07 0.07 0.06 0.07 0.08 0.07 0.07 0.08 0.08 0.09 0.10 0.08 0.08 0.07 0.06 0.05 0.08 0.07 0.05 0.05 0.04 0.05 0.06 0.05 0.05 0.04 0.04 0.03 0.02 0.02 0.01 0.01
0.12 0.11 0.09 0.06 0.05 0.05 0.05 0.06 0.06 0.06 0.05 0.06 0.06 0.04 0.04 0.05 0.06 0.07 0.08 0.08 0.05 0.04 0.06 0.08 0.06 0.07 0.06 0.06 0.06 0.06 0.06 0.05 0.05 0.04 0.03 0.03 0.02 0.02
0.12 0.10 0.08 0.06 0.05 0.04 0.06 0.06 0.04 0.03 0.04 0.04 0.05 0.05 0.04 0.04 0.04 0.04 0.05 0.07 0.07 0.07 0.07 0.09 0.09 0.11 0.11 0.09 0.08 0.07 0.07 0.06 0.06 0.05 0.04 0.03 0.03 0.02
0.08 0.07 0.06 0.06 0.06 0.04 0.04 0.04 0.04 0.02 0.03 0.04 0.04 0.04 0.03 0.03 0.04 0.05 0.06 0.08 0.09 0.09 0.08 0.11 0.13 0.15 0.15 0.13 0.10 0.09 0.07 0.05 0.05 0.05 0.04 0.03 0.02 0.02
0.07 0.07 0.07 0.07 0.06 0.04 0.03 0.03 0.02 0.01 0.02 0.03 0.03 0.03 0.04 0.05 0.06 0.08 0.09 0.09 0.10 0.09 0.08 0.09 0.09 0.09 0.09 0.08 0.07 0.06 0.05 0.04 0.04 0.03 0.03 0.04 0.04 0.03
0.06 0.06 0.06 0.06 0.05 0.04 0.03 0.03 0.03 0.02 0.02 0.03 0.03 0.03 0.04 0.05 0.05 0.05 0.05 0.06 0.08 0.08 0.08 0.07 0.06 0.05 0.05 0.04 0.04 0.04 0.04 0.03 0.03 0.03 0.03 0.03 0.04 0.04
0.03 0.04 0.04 0.04 0.04 0.04 0.04 0.03 0.02 0.02 0.02 0.02 0.02 0.03 0.03 0.02 0.02 0.02 0.03 0.04 0.05 0.05 0.05 0.04 0.04 0.04 0.05 0.04 0.04 0.04 0.04 0.04 0.03 0.03 0.03 0.02 0.02 0.02
0.03 0.03 0.04 0.04 0.04 0.04 0.04 0.03 0.02 0.02 0.02 0.02 0.02 0.02 0.02 0.02 0.02 0.02 0.02 0.03 0.03 0.04 0.04 0.05 0.05 0.06 0.06 0.05 0.05 0.04 0.04 0.04 0.04 0.03 0.02 0.02 0.02 0.02
0.03 0.04 0.05 0.06 0.07 0.09 0.09 0.08 0.05 0.04 0.04 0.03 0.03 0.02 0.02 0.02 0.01 0.01 0.01 0.02 0.02 0.03 0.03 0.04 0.04 0.04 0.04 0.04 0.04 0.04 0.05 0.05 0.04 0.04 0.03 0.03 0.03 0.03
0.02 0.03 0.04 0.06 0.08 0.10 0.10 0.08 0.06 0.05 0.04 0.03 0.03 0.03 0.03 0.02 0.02 0.02 0.02 0.02 0.03 0.03 0.03 0.03 0.02 0.02 0.02 0.02 0.03 0.02 0.03 0.03 0.03 0.03 0.03 0.03 0.03 0.02
0.02 0.03 0.02 0.02 0.02 0.03 0.03 0.03 0.03 0.03 0.04 0.03 0.03 0.02 0.02 0.01 0.01 0.01 0.01 0.01 0.01 0.01 0.02 0.02 0.02 0.02 0.02 0.02 0.02 0.02 0.01 0.01 0.02 0.02 0.01 0.01 0.01 0.01
0.03 0.03 0.02 0.02 0.03 0.03 0.03 0.04 0.03 0.03 0.03 0.03 0.03 0.02 0.02 0.02 0.02 0.02 0.02 0.02 0.02 0.02 0.02 0.02 0.02 0.01 0.01 0.01 0.02 0.02 0.01 0.01 0.01 0.01 0.01 0.01 0.01 0.01
0.04 0.02 0.02 0.02 0.02 0.02 0.03 0.03 0.03 0.03 0.03 0.04 0.04 0.04 0.04 0.04 0.04 0.03 0.03 0.03 0.03 0.03 0.02 0.01 0.01 0.01 0.01 0.02 0.02 0.02 0.02 0.01 0.01 0.01 0.01 0.01 0.01 0.01
0.04 0.03 0.02 0.02 0.02 0.02 0.02 0.03 0.03 0.03 0.03 0.03 0.03 0.04 0.04 0.04 0.04 0.04 0.04 0.04 0.04 0.03 0.03 0.02 0.01 0.01 0.02 0.02 0.02 0.02 0.03 0.03 0.03 0.03 0.03 0.03 0.03 0.03
MSLP
1013.41 1013.58 1013.79 1014.01 1014.23 1014.42 1014.55 1014.61 1014.60 1014.52 1014.38 1014.21 1014.05 1013.91 1013.83 1013.81 1013.88 1014.02 1014.23 1014.50 1014.80 1015.12 1015.44 1015.74 1016.01 1016.25 1016.46 1016.64 1016.79 1016.92 1017.05 1017.17 1017.29 1017.40 1017.51 1017.59 1017.67 1017.73
1012.94 1013.10 1013.29 1013.50 1013.72 1013.92 1014.10 1014.22 1014.29 1014.30 1014.26 1014.19 1014.10 1014.01 1013.96 1013.95 1014.00 1014.11 1014.28 1014.51 1014.77 1015.05 1015.34 1015.61 1015.87 1016.09 1016.28 1016.44 1016.57 1016.68 1016.78 1016.87 1016.96 1017.04 1017.12 1017.19 1017.25 1017.30
1012.47 1012.63 1012.80 1013.00 1013.22 1013.44 1013.66 1013.85 1014.02 1014.14 1014.21 1014.25 1014.26 1014.26 1014.26 1014.28 1014.33 1014.42 1014.56 1014.74 1014.95 1015.19 1015.44 1015.68 1015.91 1016.11 1016.28 1016.42 1016.53 1016.63 1016.71 1016.78 1016.84 1016.91 1016.96 1017.01 1017.04 1017.07
1012.03 1012.18 1012.35 1012.54 1012.76 1013.01 1013.28 1013.55 1013.82 1014.05 1014.26 1014.42 1014.54 1014.63 1014.69 1014.75 1014.81 1014.90 1015.01 1015.15 1015.33 1015.52 1015.73 1015.94 1016.14 1016.32 1016.47 1016.59 1016.68 1016.76 1016.82 1016.87 1016.92 1016.96 1017.00 1017.03 1017.04 1017.03
1011.66 1011.82 1011.98 1012.18 1012.41 1012.70 1013.02 1013.38 1013.73 1014.09 1014.41 1014.69 1014.91 1015.09 1015.22 1015.32 1015.40 1015.48 1015.57 1015.68 1015.83 1015.99 1016.16 1016.34 1016.51 1016.66 1016.79 1016.89 1016.96 1017.02 1017.06 1017.10 1017.13 1017.16 1017.18 1017.19 1017.18 1017.15
1011.48 1011.63 1011.79 1012.00 1012.26 1012.58 1012.96 1013.38 1013.83 1014.27 1014.69 1015.06 1015.37 1015.62 1015.80 1015.93 1016.02 1016.10 1016.18 1016.27 1016.38 1016.51 1016.65 1016.80 1016.94 1017.07 1017.17 1017.24 1017.29 1017.33 1017.35 1017.37 1017.39 1017.40 1017.41 1017.40 1017.37 1017.31
1011.55 1011.70 1011.87 1012.08 1012.36 1012.72 1013.14 1013.61 1014.12 1014.62 1015.10 1015.53 1015.89 1016.17 1016.38 1016.52 1016.61 1016.68 1016.75 1016.82 1016.90 1017.01 1017.12 1017.24 1017.35 1017.45 1017.52 1017.56 1017.58 1017.59 1017.59 1017.58 1017.58 1017.58 1017.57 1017.55 1017.51 1017.43
1011.95 1012.09 1012.26 1012.48 1012.78 1013.15 1013.60 1014.10 1014.62 1015.15 1015.65 1016.09 1016.45 1016.72 1016.92 1017.05 1017.13 1017.18 1017.22 1017.27 1017.33 1017.41 1017.50 1017.59 1017.67 1017.73 1017.76 1017.77 1017.76 1017.72 1017.69 1017.66 1017.63 1017.61 1017.59 1017.56 1017.51 1017.43
1012.70 1012.82 1012.99 1013.21 1013.51 1013.89 1014.33 1014.82 1015.33 1015.83 1016.29 1016.70 1017.01 1017.25 1017.40 1017.49 1017.54 1017.56 1017.58 1017.60 1017.64 1017.70 1017.76 1017.82 1017.86 1017.89 1017.88 1017.84 1017.78 1017.71 1017.64 1017.57 1017.51 1017.47 1017.43 1017.39 1017.34 1017.26
1013.75 1013.85 1014.01 1014.23 1014.52 1014.87 1015.28 1015.73 1016.19 1016.62 1017.01 1017.33 1017.57 1017.73 1017.82 1017.85 1017.85 1017.84 1017.82 1017.82 1017.84 1017.87 1017.91 1017.94 1017.95 1017.92 1017.87 1017.79 1017.68 1017.56 1017.44 1017.34 1017.25 1017.18 1017.12 1017.07 1017.02 1016.95
1015.00 1015.09 1015.23 1015.43 1015.69 1016.01 1016.37 1016.75 1017.12 1017.46 1017.75 1017.97 1018.11 1018.18 1018.19 1018.16 1018.11 1018.06 1018.01 1017.99 1017.99 1018.00 1018.01 1018.00 1017.97 1017.91 1017.81 1017.67 1017.51 1017.34 1017.18 1017.03 1016.91 1016.81 1016.73 1016.67 1016.62 1016.56
1016.32 1016.39 1016.51 1016.69 1016.91 1017.18 1017.48 1017.78 1018.05 1018.29 1018.47 1018.58 1018.62 1018.61 1018.54 1018.46 1018.36 1018.28 1018.22 1018.17 1018.15 1018.14 1018.12 1018.08 1018.01 1017.90 1017.75 1017.57 1017.36 1017.15 1016.94 1016.75 1016.59 1016.46 1016.36 1016.29 1016.23 1016.17
1017.59 1017.64 1017.74 1017.89 1018.08 1018.29 1018.52 1018.73 1018.92 1019.06 1019.14 1019.16 1019.12 1019.03 1018.92 1018.79 1018.67 1018.56 1018.48 1018.43 1018.39 1018.36 1018.31 1018.23 1018.12 1017.97 1017.77 1017.54 1017.29 1017.03 1016.78 1016.56 1016.36 1016.21 1016.08 1015.99 1015.91 1015.85
1018.71 1018.75 1018.83 1018.95 1019.09 1019.26 1019.42 1019.57 1019.68 1019.74 1019.75 1019.71 1019.61 1019.48 1019.34 1019.19 1019.06 1018.95 1018.86 1018.80 1018.74 1018.68 1018.60 1018.49 1018.33 1018.13 1017.89 1017.61 1017.32 1017.02 1016.74 1016.48 1016.26 1016.07 1015.92 1015.80 1015.71 1015.64
1019.65 1019.68 1019.74 1019.83 1019.95 1020.07 1020.19 1020.28 1020.34 1020.36 1020.32 1020.24 1020.12 1019.98 1019.83 1019.68 1019.55 1019.44 1019.35 1019.28 1019.20 1019.11 1018.99 1018.84 1018.63 1018.38 1018.09 1017.78 1017.44 1017.11 1016.80 1016.51 1016.26 1016.04 1015.86 1015.71 1015.59 1015.50
1020.42 1020.44 1020.48 1020.56 1020.65 1020.75 1020.84 1020.91 1020.94 1020.93 1020.88 1020.79 1020.67 1020.53 1020.39 1020.25 1020.13 1020.02 1019.93 1019.84 1019.73 1019.60 1019.44 1019.23 1018.98 1018.68 1018.34 1017.97 1017.60 1017.24 1016.90 1016.58 1016.30 1016.05 1015.84 1015.66 1015.51 1015.38
1021.09 1021.09 1021.13 1021.19 1021.27 1021.35 1021.43 1021.49 1021.52 1021.51 1021.46 1021.38 1021.27 1021.15 1021.02 1020.89 1020.76 1020.65 1020.53 1020.41 1020.27 1020.10 1019.88 1019.61 1019.30 1018.95 1018.56 1018.16 1017.74 1017.34 1016.97 1016.62 1016.30 1016.02 1015.77 1015.55 1015.37 1015.21
1021.71 1021.71 1021.74 1021.80 1021.88 1021.97 1022.05 1022.11 1022.15 1022.15 1022.11 1022.04 1021.93 1021.81 1021.68 1021.54 1021.40 1021.26 1021.11 1020.94 1020.75 1020.52 1020.25 1019.93 1019.56 1019.15 1018.72 1018.27 1017.82 1017.38 1016.96 1016.57 1016.22 1015.89 1015.60 1015.34 1015.11 1014.91
1022.34 1022.35 1022.39 1022.46 1022.54 1022.65 1022.74 1022.82 1022.86 1022.87 1022.84 1022.76 1022.65 1022.51 1022.35 1022.17 1021.99 1021.80 1021.60 1021.38 1021.13 1020.84 1020.52 1020.14 1019.72 1019.27 1018.79 1018.30 1017.80 1017.32 1016.86 1016.43 1016.03 1015.65 1015.31 1015.00 1014.71 1014.46
1023.02 1023.04 1023.10 1023.18 1023.29 1023.41 1023.53 1023.62 1023.67 1023.68 1023.64 1023.54 1023.39 1023.21 1022.99 1022.76 1022.51 1022.26 1021.99 1021.70 1021.40 1021.06 1020.68 1020.27 1019.81 1019.32 1018.81 1018.28 1017.74 1017.22 1016.71 1016.23 1015.77 1015.34 1014.93 1014.56 1014.22 1013.91
1023.72 1023.77 1023.85 1023.97 1024.11 1024.26 1024.39 1024.50 1024.55 1024.55 1024.47 1024.33 1024.13 1023.87 1023.58 1023.27 1022.93 1022.60 1022.26 1021.91 1021.55 1021.17 1020.77 1020.33 1019.86 1019.35 1018.82 1018.26 1017.70 1017.13 1016.57 1016.03 1015.51 1015.02 1014.55 1014.11 1013.70 1013.33
1024.40 1024.48 1024.60 1024.76 1024.94 1025.12 1025.28 1025.39 1025.44 1025.41 1025.30 1025.09 1024.81 1024.47 1024.09 1023.68 1023.26 1022.84 1022.43 1022.03 1021.64 1021.24 1020.82 1020.38 1019.91 1019.40 1018.86 1018.30 1017.71 1017.11 1016.51 1015.91 1015.34 1014.78 1014.24 1013.73 1013.26 1012.82
1025.00 1025.12 1025.29 1025.49 1025.71 1025.93 1026.10 1026.22 1026.27 1026.20 1026.04 1025.77 1025.41 1024.97 1024.49 1023.99 1023.48 1022.99 1022.53 1022.09 1021.67 1021.27 1020.87 1020.44 1019.99 1019.51 1018.98 1018.42 1017.82 1017.20 1016.57 1015.92 1015.29 1014.67 1014.07 1013.50 1012.96 1012.45
Thickness
5753 5752 5750 5750 5750 5749 5748 5744 5735 5728 5730 5737 5741 5744 5743 5741 5739 5737 5736 5733 5731 5729 5727 5725 5723 5721 5719 5717 5716 5714 5712 5710 5709 5707 5705 5703 5701 5700
5752 5750 5749 5749 5748 5748 5747 5745 5742 5735 5730 5736 5739 5742 5741 5740 5737 5736 5734 5733 5730 5728 5727 5725 5722 5720 5718 5716 5714 5712 5711 5709 5707 5705 5703 5701 5700 5698
5751 5749 5748 5747 5746 5746 5746 5744 5741 5737 5731 5734 5738 5739 5738 5736 5734 5733 5732 5731 5729 5727 5726 5724 5721 5719 5717 5715 5713 5711 5709 5707 5705 5703 5701 5699 5697 5695
5749 5748 5747 5747 5745 5744 5743 5741 5739 5738 5733 5729 5732 5732 5732 5732 5731 5730 5730 5729 5728 5727 5725 5722 5720 5718 5715 5713 5711 5709 5707 5705 5703 5701 5698 5696 5694 5692
5748 5746 5745 5744 5742 5741 5740 5739 5738 5737 5734 5729 5728 5729 5728 5729 5727 5726 5726 5726 5726 5725 5723 5720 5718 5716 5714 5711 5709 5706 5704 5702 5700 5697 5695 5693 5691 5688
5747 5745 5743 5741 5739 5738 5737 5735 5734 5732 5730 5727 5724 5724 5723 5724 5722 5719 5717 5719 5719 5720 5719 5717 5714 5712 5710 5708 5705 5703 5701 5699 5696 5694 5691 5689 5686 5684
5743 5741 5740 5738 5736 5734 5733 5731 5730 5727 5724 5722 5719 5718 5716 5715 5713 5713 5711 5712 5712 5713 5712 5711 5710 5707 5705 5702 5701 5699 5697 5695 5692 5689 5687 5684 5682 5680
5738 5736 5736 5733 5730 5728 5727 5725 5724 5721 5718 5716 5714 5711 5710 5710 5709 5708 5705 5702 5700 5705 5703 5702 5703 5700 5699 5697 5696 5694 5692 5689 5686 5683 5680 5678 5675 5673
5734 5731 5730 5728 5725 5722 5720 5718 5716 5715 5713 5711 5707 5705 5704 5704 5702 5701 5700 5697 5695 5697 5695 5692 5693 5692 5692 5690 5690 5688 5685 5682 5679 5676 5673 5670 5668 5665
5727 5724 5722 5719 5719 5716 5714 5711 5708 5707 5706 5704 5701 5700 5699 5698 5697 5696 5694 5692 5692 5691 5689 5683 5684 5683 5683 5681 5680 5678 5676 5673 5670 5667 5664 5661 5658 5656
5719 5717 5715 5713 5711 5709 5707 5704 5701 5699 5698 5696 5695 5693 5691 5691 5690 5688 5686 5683 5681 5681 5679 5675 5674 5673 5672 5671 5669 5667 5665 5662 5659 5656 5653 5651 5648 5646
5713 5710 5708 5706 5704 5702 5700 5697 5693 5691 5691 5689 5687 5685 5684 5682 5681 5678 5676 5674 5672 5670 5670 5667 5665 5662 5660 5659 5657 5655 5653 5651 5647 5644 5642 5639 5636 5633
5707 5703 5700 5698 5696 5694 5692 5690 5686 5685 5683 5681 5679 5677 5675 5673 5671 5669 5667 5665 5662 5658 5658 5657 5654 5651 5647 5645 5645 5644 5642 5639 5636 5633 5630 5627 5623 5620
5700 5697 5693 5691 5689 5687 5685 5682 5680 5678 5676 5673 5670 5667 5665 5663 5661 5659 5657 5655 5652 5649 5647 5646 5642 5639 5636 5633 5632 5632 5630 5628 5625 5622 5618 5614 5611 5607
5693 5689 5686 5683 5681 5678 5676 5674 5672 5670 5667 5664 5660 5657 5655 5653 5651 5649 5647 5644 5642 5639 5636 5634 5632 5629 5626 5622 5620 5619 5616 5615 5612 5609 5605 5601 5598 5595
5684 5681 5678 5675 5673 5669 5667 5664 5662 5659 5657 5653 5650 5648 5646 5644 5641 5639 5636 5633 5629 5627 5625 5623 5620 5617 5614 5611 5608 5605 5603 5601 5599 5596 5592 5589 5586 5583
5677 5675 5671 5668 5664 5660 5657 5654 5652 5648 5645 5643 5639 5637 5635 5632 5630 5628 5625 5622 5618 5615 5613 5612 5609 5606 5602 5599 5595 5592 5589 5587 5584 5582 5579 5576 5572 5569
5669 5665 5661 5658 5654 5650 5647 5643 5640 5637 5634 5631 5628 5625 5623 5620 5618 5616 5613 5609 5606 5604 5601 5599 5596 5593 5589 5585 5581 5578 5575 5573 5571 5568 5565 5561 5558 5554
5659 5654 5650 5647 5643 5640 5636 5633 5629 5627 5624 5621 5618 5615 5613 5610 5606 5603 5600 5597 5594 5592 5590 5587 5583 5579 5574 5570 5568 5565 5562 5560 5557 5554 5551 5547 5544 5541
5649 5644 5640 5636 5633 5629 5626 5623 5620 5617 5613 5611 5608 5605 5602 5598 5595 5591 5588 5585 5583 5580 5577 5574 5571 5566 5561 5558 5556 5554 5551 5547 5544 5541 5538 5535 5531 5528
5637 5634 5630 5626 5622 5618 5615 5613 5609 5606 5603 5599 5596 5593 5590 5586 5583 5580 5577 5573 5571 5568 5564 5561 5559 5556 5553 5549 5546 5543 5539 5535 5531 5527 5524 5521 5519 5516
5627 5623 5620 5616 5612 5608 5605 5602 5599 5595 5591 5587 5584 5581 5578 5574 5571 5568 5566 5563 5559 5556 5552 5550 5548 5545 5541 5537 5534 5531 5528 5524 5520 5516 5512 5509 5505 5502
5614 5612 5609 5606 5601 5597 5593 5590 5587 5583 5578 5575 5572 5569 5566 5563 5560 5557 5554 5551 5548 5544 5541 5538 5535 5532 5529 5526 5523 5520 5517 5513 5509 5505 5501 5499 5495 5492